N5CSU Weather Reports


time (UTC)temp
C
wind
direction
speed
KPH
gust
KPH
rain 1hr
cm
rain 24hr
cm
rain mn
cm
humidity
%
barometer
mb
20260502214931 23 156 0.0 0.0 0.00 0.00 0.00 33 1019.5
20260502214428 23 190 0.0 0.0 0.00 0.00 0.00 37 1019.4
20260502213925 23 185 0.0 0.0 0.00 0.00 0.00 36 1019.4
20260502213422 23 183 0.0 0.0 0.00 0.00 0.00 39 1019.6
20260502212921 23 178 1.6 1.6 0.00 0.00 0.00 37 1019.6
20260502212419 23 182 1.6 1.6 0.00 0.00 0.00 36 1019.6
20260502211916 23 190 0.0 0.0 0.00 0.00 0.00 34 1019.7
20260502211411 23 183 0.0 0.0 0.00 0.00 0.00 36 1019.6
20260502210909 24 183 0.0 0.0 0.00 0.00 0.00 35 1019.9
20260502210406 24 179 0.0 0.0 0.00 0.00 0.00 37 1019.9
20260502205903 23 178 0.0 0.0 0.00 0.00 0.00 38 1020.1
20260502205359 23 155 0.0 0.0 0.00 0.00 0.00 39 1019.9
20260502204856 23 182 0.0 0.0 0.00 0.00 0.00 36 1020.0
20260502204353 23 179 0.0 0.0 0.00 0.00 0.00 35 1020.3
20260502203851 23 171 0.0 1.6 0.00 0.00 0.00 33 1020.2
20260502203348 23 184 0.0 0.0 0.00 0.00 0.00 34 1020.2
20260502202844 23 157 0.0 0.0 0.00 0.00 0.00 34 1020.2
20260502202341 23 186 0.0 0.0 0.00 0.00 0.00 33 1020.2
20260502201839 23 174 1.6 3.2 0.00 0.00 0.00 36 1020.4
20260502201335 23 175 0.0 0.0 0.00 0.00 0.00 37 1020.2
20260502200831 23 159 0.0 0.0 0.00 0.00 0.00 38 1020.3
20260502200327 23 187 0.0 0.0 0.00 0.00 0.00 36 1020.5
20260502195825 23 183 0.0 0.0 0.00 0.00 0.00 34 1020.7
20260502195322 23 178 1.6 1.6 0.00 0.00 0.00 37 1020.6
20260502194818 23 181 0.0 0.0 0.00 0.00 0.00 36 1020.6
20260502194315 23 171 0.0 0.0 0.00 0.00 0.00 38 1020.7
20260502193812 23 172 1.6 1.6 0.00 0.00 0.00 36 1020.7
20260502193309 23 169 1.6 1.6 0.00 0.00 0.00 34 1020.7
20260502192804 23 189 0.0 0.0 0.00 0.00 0.00 38 1020.9
20260502192304 23 201 0.0 0.0 0.00 0.00 0.00 38 1020.8
20260502191758 23 206 0.0 0.0 0.00 0.00 0.00 34 1021.1
20260502191256 23 182 0.0 0.0 0.00 0.00 0.00 36 1021.1
20260502190753 23 187 0.0 0.0 0.00 0.00 0.00 37 1021.2
20260502190250 23 197 0.0 0.0 0.00 0.00 0.00 36 1021.1
20260502185745 23 183 0.0 0.0 0.00 0.00 0.00 39 1021.2
20260502185241 23 147 0.0 0.0 0.00 0.00 0.00 40 1021.1
20260502184737 23 183 0.0 0.0 0.00 0.00 0.00 35 1021.4
20260502184228 23 165 0.0 0.0 0.00 0.00 0.00 38 1021.3
20260502183725 22 174 0.0 0.0 0.00 0.00 0.00 39 1021.4
20260502183221 22 196 0.0 0.0 0.00 0.00 0.00 36 1021.6
20260502182716 22 195 0.0 0.0 0.00 0.00 0.00 38 1021.6
20260502182211 22 197 0.0 0.0 0.00 0.00 0.00 35 1021.6
20260502181708 22 184 0.0 0.0 0.00 0.00 0.00 39 1021.7
20260502181203 22 185 0.0 0.0 0.00 0.00 0.00 38 1021.6
20260502180659 22 178 0.0 0.0 0.00 0.00 0.00 40 1021.7
20260502180156 22 172 0.0 0.0 0.00 0.00 0.00 42 1021.8
20260502170120 21 197 0.0 0.0 0.00 0.00 0.00 43 1022.6
20260502164107 21 194 0.0 0.0 0.00 0.00 0.00 44 1022.5
20260502163603 21 168 1.6 3.2 0.00 0.00 0.00 44 1022.6
20260502163100 20 355 1.6 1.6 0.00 0.00 0.00 49 1022.6
20260502162556 20 182 0.0 0.0 0.00 0.00 0.00 47 1022.5
20260502162054 20 183 0.0 0.0 0.00 0.00 0.00 47 1022.7
20260502161550 20 182 0.0 0.0 0.00 0.00 0.00 45 1022.5
20260502161048 20 188 0.0 0.0 0.00 0.00 0.00 47 1022.6
20260502160546 20 207 0.0 0.0 0.00 0.00 0.00 53 1022.5
20260502151959 18 182 0.0 0.0 0.00 0.00 0.00 55 1022.3
20260502151455 18 187 0.0 0.0 0.00 0.00 0.00 62 1022.4
20260502150953 17 186 0.0 0.0 0.00 0.00 0.00 57 1022.5
20260502150450 17 177 0.0 0.0 0.00 0.00 0.00 57 1022.5
20260502130336 10 197 0.0 0.0 0.00 0.00 0.00 97 1021.8
20260502123318 8 198 0.0 0.0 0.00 0.00 0.00 96 1021.1
20260502122815 8 198 0.0 0.0 0.00 0.00 0.00 96 1020.9
20260502122311 8 198 0.0 0.0 0.00 0.00 0.00 96 1020.9
20260502121809 8 198 0.0 0.0 0.00 0.00 0.00 96 1020.9
20260502121306 8 198 0.0 0.0 0.00 0.00 0.00 96 1020.7
20260502120803 8 198 0.0 0.0 0.00 0.00 0.00 96 1020.5
20260502120300 8 198 0.0 0.0 0.00 0.00 0.00 96 1020.5
20260502115758 8 198 0.0 0.0 0.00 0.00 0.00 96 1020.6
20260502115254 8 198 0.0 0.0 0.00 0.00 0.00 96 1020.4
20260502114750 8 198 0.0 0.0 0.00 0.00 0.00 96 1020.5
20260502114247 8 198 0.0 0.0 0.00 0.00 0.00 96 1020.4
20260502113745 8 198 0.0 0.0 0.00 0.00 0.00 96 1020.3
20260502113242 8 198 0.0 0.0 0.00 0.00 0.00 96 1020.2
20260502112740 8 198 0.0 0.0 0.00 0.00 0.00 96 1019.9
20260502112237 8 198 0.0 0.0 0.00 0.00 0.00 96 1020.0
20260502111734 8 198 0.0 0.0 0.00 0.00 0.00 96 1019.9
20260502111232 8 198 0.0 0.0 0.00 0.00 0.00 96 1020.0
20260502110729 8 198 0.0 0.0 0.00 0.00 0.00 96 1019.6
20260502110227 8 201 0.0 0.0 0.00 0.00 0.00 96 1019.6
20260502105725 8 201 0.0 0.0 0.00 0.00 0.00 95 1019.7
20260502105221 8 201 0.0 0.0 0.00 0.00 0.00 95 1019.7
20260502104718 8 198 0.0 0.0 0.00 0.00 0.00 95 1019.9
20260502104216 8 198 0.0 0.0 0.00 0.00 0.00 95 1019.8
20260502103713 8 198 0.0 0.0 0.00 0.00 0.00 95 1019.9
20260502103211 8 198 0.0 0.0 0.00 0.00 0.00 95 1019.7
20260502102708 8 198 0.0 0.0 0.00 0.00 0.00 95 1019.4
20260502102204 8 198 0.0 0.0 0.00 0.00 0.00 95 1019.6
20260502101703 8 198 0.0 0.0 0.00 0.00 0.00 95 1019.7
20260502101201 8 198 0.0 0.0 0.00 0.00 0.00 95 1019.5
20260502100658 8 198 0.0 0.0 0.00 0.00 0.00 95 1019.5
20260502100156 8 198 0.0 0.0 0.00 0.00 0.00 95 1019.6
20260502091131 8 199 0.0 0.0 0.00 0.00 0.00 95 1019.4
20260502090627 8 199 0.0 0.0 0.00 0.00 0.00 95 1019.2
20260502090125 8 199 0.0 0.0 0.00 0.00 0.00 95 1019.1
20260502071522 10 199 0.0 0.0 0.00 0.00 0.00 95 1019.4
20260502071020 10 199 0.0 0.0 0.00 0.00 0.00 95 1019.4
20260502070518 10 199 0.0 0.0 0.00 0.00 0.00 95 1019.4
20260502070016 10 199 0.0 0.0 0.00 0.00 0.00 95 1019.5
20260502065514 10 199 0.0 0.0 0.00 0.00 0.00 95 1019.7
20260502065012 10 199 0.0 0.0 0.00 0.00 0.00 95 1019.5
20260502064510 10 199 0.0 0.0 0.00 0.00 0.00 95 1019.4
20260502064006 10 199 0.0 0.0 0.00 0.00 0.00 95 1019.5
20260502063504 10 199 0.0 0.0 0.00 0.00 0.00 95 1019.5
20260502063002 10 199 0.0 0.0 0.00 0.00 0.00 95 1019.5
20260502062458 10 199 0.0 0.0 0.00 0.00 0.00 95 1019.6
20260502061957 10 199 0.0 0.0 0.00 0.00 0.00 95 1019.3
20260502061455 10 199 0.0 0.0 0.00 0.00 0.00 95 1019.3
20260502060950 10 199 0.0 0.0 0.00 0.00 0.00 94 1019.6
20260502060446 10 199 0.0 0.0 0.00 0.00 0.00 94 1019.5
20260502055943 10 199 0.0 0.0 0.00 0.00 0.00 94 1019.6
20260502055440 11 199 0.0 0.0 0.00 0.00 0.00 94 1019.3
20260502054935 11 199 0.0 0.0 0.00 0.00 0.00 94 1019.4
20260502054433 11 199 0.0 0.0 0.00 0.00 0.00 94 1019.4
20260502053930 11 199 0.0 0.0 0.00 0.00 0.00 94 1019.5
20260502053427 11 199 0.0 0.0 0.00 0.00 0.00 94 1019.5
20260502052924 11 199 0.0 0.0 0.00 0.00 0.00 94 1019.6
20260502052422 11 199 0.0 0.0 0.00 0.00 0.00 94 1019.6
20260502051920 11 199 0.0 0.0 0.00 0.00 0.00 94 1019.4
20260502051418 11 199 0.0 0.0 0.00 0.00 0.00 94 1019.5
20260502050915 11 199 0.0 0.0 0.00 0.00 0.00 94 1019.6
20260502050411 11 199 0.0 0.0 0.00 0.00 0.00 93 1019.5
20260502045908 11 199 0.0 0.0 0.00 0.00 0.00 93 1019.5
20260502045404 11 199 0.0 0.0 0.00 0.00 0.00 93 1019.5
20260502044856 12 199 0.0 0.0 0.00 0.00 0.00 93 1019.4
20260502044352 12 199 0.0 0.0 0.00 0.00 0.00 93 1019.4
20260502043849 12 199 0.0 0.0 0.00 0.00 0.00 93 1019.4
20260502043347 12 199 0.0 0.0 0.00 0.00 0.00 93 1019.4
20260502042846 12 199 0.0 0.0 0.00 0.00 0.00 93 1019.4
20260502042344 12 199 0.0 0.0 0.00 0.00 0.00 93 1019.5
20260502041841 12 199 0.0 0.0 0.00 0.00 0.00 92 1019.2
20260502041338 12 199 0.0 0.0 0.00 0.00 0.00 92 1019.1
20260502040836 12 199 0.0 0.0 0.00 0.00 0.00 92 1019.2
20260502040332 12 199 0.0 0.0 0.00 0.00 0.00 91 1019.1
20260502035828 12 199 0.0 0.0 0.00 0.00 0.00 91 1019.2
20260502035325 12 199 0.0 0.0 0.00 0.00 0.00 90 1019.3
20260502034822 13 199 0.0 0.0 0.00 0.00 0.00 90 1019.2
20260502034321 13 199 0.0 0.0 0.00 0.00 0.00 90 1019.3
20260502033819 13 199 0.0 0.0 0.00 0.00 0.00 90 1019.4
20260502033316 13 199 0.0 0.0 0.00 0.00 0.00 89 1019.5
20260502032813 13 199 0.0 0.0 0.00 0.00 0.00 89 1019.2
20260502032309 13 199 0.0 0.0 0.00 0.00 0.00 89 1019.1
20260502031807 13 199 0.0 0.0 0.00 0.00 0.00 88 1019.0
20260502031305 13 199 0.0 0.0 0.00 0.00 0.00 87 1019.0
20260502030803 13 199 0.0 0.0 0.00 0.00 0.00 87 1018.9
20260502030301 13 199 0.0 0.0 0.00 0.00 0.00 87 1019.0
20260502025758 13 199 0.0 0.0 0.00 0.00 0.00 87 1018.9
20260502025256 13 199 0.0 0.0 0.00 0.00 0.00 87 1018.9
20260502024753 13 199 0.0 0.0 0.00 0.00 0.00 87 1018.8
20260502024251 13 199 0.0 0.0 0.00 0.00 0.00 87 1018.7
20260502023749 13 199 0.0 0.0 0.00 0.00 0.00 87 1018.8
20260502023246 14 199 0.0 0.0 0.00 0.00 0.00 86 1018.7
20260502022744 14 199 0.0 0.0 0.00 0.00 0.00 86 1018.8
20260502022239 14 199 0.0 0.0 0.00 0.00 0.00 86 1018.7
20260502021737 14 199 0.0 0.0 0.00 0.00 0.00 85 1018.5
20260502021234 14 199 0.0 0.0 0.00 0.00 0.00 85 1018.4
20260502020731 14 199 0.0 0.0 0.00 0.00 0.00 84 1018.3
20260502020228 14 199 0.0 0.0 0.00 0.00 0.00 84 1018.3
20260502015726 14 199 0.0 0.0 0.00 0.00 0.00 84 1018.1
20260502015222 14 199 0.0 0.0 0.00 0.00 0.00 83 1018.0
20260502014720 14 199 0.0 0.0 0.00 0.00 0.00 83 1017.8
20260502014217 14 199 0.0 0.0 0.00 0.00 0.00 83 1017.8
20260502013713 15 199 0.0 0.0 0.00 0.00 0.00 83 1017.8
20260502013208 15 199 0.0 0.0 0.00 0.00 0.00 82 1017.7
20260502012706 15 199 0.0 0.0 0.00 0.00 0.00 81 1017.5
20260502012204 15 199 0.0 0.0 0.00 0.00 0.00 81 1017.4
20260502011700 15 199 0.0 0.0 0.00 0.00 0.00 81 1017.5
20260502011156 15 199 0.0 0.0 0.00 0.00 0.00 81 1017.3
20260502010654 15 199 0.0 0.0 0.00 0.00 0.00 80 1017.2
20260502010149 15 199 0.0 0.0 0.00 0.00 0.00 78 1017.2
20260502005647 15 199 0.0 0.0 0.00 0.00 0.00 79 1017.0
20260502005145 15 201 0.0 0.0 0.00 0.00 0.00 77 1017.0
20260502004641 15 192 0.0 0.0 0.00 0.00 0.00 77 1017.1
20260502004137 15 192 0.0 0.0 0.00 0.00 0.00 77 1016.9
20260502003635 15 192 0.0 0.0 0.00 0.00 0.00 77 1016.9
20260502003132 15 193 0.0 0.0 0.00 0.00 0.00 76 1016.7
20260502002628 15 193 0.0 0.0 0.00 0.00 0.00 77 1016.8
20260502002126 16 193 0.0 0.0 0.00 0.00 0.00 78 1016.9
20260502001623 16 193 0.0 0.0 0.00 0.00 0.00 76 1016.9
20260502001121 16 193 0.0 0.0 0.00 0.00 0.00 76 1016.9
20260502000619 16 192 0.0 0.0 0.00 0.00 0.00 73 1016.7
20260502000116 16 193 0.0 0.0 0.00 0.00 0.00 75 1016.5
20260501235612 16 193 0.0 0.0 0.00 0.00 0.00 78 1016.5
20260501235108 15 193 0.0 0.0 0.00 0.00 0.00 78 1016.3
20260501234603 15 194 0.0 0.0 0.00 0.00 0.00 79 1016.1
20260501234101 15 194 0.0 0.0 0.00 0.00 0.00 77 1016.1
20260501233559 15 193 0.0 0.0 0.00 0.00 0.00 81 1016.0
20260501233056 16 193 0.0 0.0 0.00 0.00 0.00 80 1016.0
20260501232552 16 193 0.0 0.0 0.00 0.00 0.00 79 1016.1
20260501232049 16 193 0.0 0.0 0.00 0.00 0.00 77 1015.8
20260501231547 16 193 0.0 0.0 0.00 0.00 0.00 75 1016.0
20260501231045 16 193 0.0 0.0 0.00 0.00 0.00 76 1015.8
20260501230543 16 193 0.0 0.0 0.00 0.00 0.00 76 1015.8
20260501230041 16 193 0.0 0.0 0.00 0.00 0.00 75 1015.7
20260501225538 16 193 0.0 0.0 0.00 0.00 0.00 76 1015.6
20260501225034 16 182 0.0 0.0 0.00 0.00 0.00 75 1015.7
20260501224532 16 182 0.0 0.0 0.00 0.00 0.00 75 1015.7
20260501224029 16 182 0.0 0.0 0.00 0.00 0.00 73 1015.6
20260501223526 16 188 0.0 0.0 0.00 0.00 0.00 72 1015.8
20260501223022 16 185 0.0 0.0 0.00 0.00 0.00 74 1015.5
20260501222518 16 185 0.0 0.0 0.00 0.00 0.00 72 1015.7
20260501222015 16 185 0.0 0.0 0.00 0.00 0.00 72 1015.9
20260501221511 16 186 0.0 0.0 0.00 0.00 0.00 72 1015.7
20260501221010 16 198 0.0 0.0 0.00 0.00 0.00 67 1015.8
20260501220507 16 203 0.0 0.0 0.00 0.00 0.00 66 1015.5
20260501220003 16 189 0.0 0.0 0.00 0.00 0.00 68 1015.5
20260501215500 16 171 0.0 0.0 0.00 0.00 0.00 69 1015.4